Wind_Speed
7 7 6 6 6 6 7 7 7 7 7 8 8 8 7 7 8 8 8 8 9 9 10 10 11 11 12 12 12 12 12 12 12 12 12 12 12 12 12 12 12 12 11 12
8 7 7 7 7 8 7 7 7 8 8 8 8 9 9 9 9 10 9 9 10 10 10 11 11 11 12 12 12 12 12 13 13 12 12 12 13 13 13 13 13 12 12 12
9 9 9 8 8 9 8 8 8 9 9 9 9 10 9 9 9 10 10 10 10 10 10 11 11 11 12 12 13 13 13 13 13 13 13 13 13 13 14 14 14 14 13 14
10 10 10 10 10 10 9 9 9 9 10 9 10 11 10 10 10 10 10 11 11 12 12 12 12 12 12 13 13 13 13 13 13 13 13 13 13 14 14 14 14 15 14 15
11 12 12 11 11 11 10 10 10 10 11 10 10 12 11 10 10 10 10 11 11 12 12 13 13 12 13 13 13 14 14 14 13 13 13 14 14 14 15 15 16 15 15 15
11 12 12 12 11 11 11 11 11 11 11 12 11 11 11 11 11 11 10 10 11 12 12 13 13 13 13 13 14 15 14 14 14 14 14 14 15 16 16 16 17 17 17 17
11 11 12 11 11 10 11 11 11 10 11 12 11 12 12 11 11 11 12 11 12 13 13 13 13 14 14 14 15 15 15 15 15 15 15 16 16 17 17 18 17 17 17 17
11 11 11 11 11 10 10 11 10 10 9 11 12 13 13 12 12 13 13 13 14 14 13 13 13 14 15 15 15 16 16 16 16 16 17 17 18 18 18 18 18 18 18 17
11 12 12 11 11 11 10 10 10 10 10 12 13 13 14 14 14 14 14 15 15 15 14 14 14 15 15 16 16 16 17 17 17 18 18 19 19 19 19 19 19 19 19 19
12 12 12 11 11 11 11 10 10 10 10 12 13 13 13 15 16 16 17 17 16 16 15 15 15 16 16 16 17 17 18 18 19 20 20 20 20 20 20 20 20 20 19 19
13 13 13 13 12 12 12 12 12 12 12 12 13 14 16 16 16 17 18 17 17 16 16 16 16 17 18 18 18 18 19 20 20 21 21 21 21 21 21 21 21 21 21 21
15 15 14 14 13 13 14 14 14 14 14 14 16 15 16 16 17 17 17 17 17 16 17 18 18 18 19 19 19 20 20 21 22 22 22 22 22 22 22 22 22 22 22 22
16 16 15 16 15 15 14 14 14 15 15 15 16 16 16 17 18 18 18 18 18 18 18 19 19 20 20 20 20 21 21 21 22 23 23 23 23 23 23 23 23 22 23 23
18 17 17 17 16 16 16 16 16 17 17 17 17 17 18 19 19 19 19 19 20 20 20 20 21 21 22 22 22 22 23 23 23 23 24 24 24 24 23 23 23 23 23 23
19 18 18 18 17 18 18 18 18 19 19 19 18 19 19 20 21 21 21 21 21 21 21 22 22 22 23 24 24 24 24 25 25 25 25 25 25 25 24 24 24 24 24 24
19 19 19 19 19 20 20 19 19 20 21 21 20 20 21 21 22 22 22 23 23 23 23 23 23 24 24 25 25 25 25 25 25 25 24 24 24 25 25 25 25 25 25 25
20 20 20 20 19 21 22 20 21 21 20 20 22 22 22 23 24 24 24 25 25 24 25 25 25 25 26 26 26 26 26 25 25 24 25 25 25 25 26 26 26 26 26 26
20 21 21 20 20 22 21 21 22 22 21 22 23 24 24 24 24 25 25 26 26 26 26 26 26 26 27 27 27 27 26 26 26 25 25 26 26 26 27 27 27 27 27 27
21 21 21 22 22 23 21 21 21 22 22 23 24 24 24 24 25 25 25 26 26 26 27 26 26 26 26 26 27 27 28 28 27 27 27 27 28 28 28 28 28 28 28 28
21 21 22 23 23 24 21 22 23 23 24 24 24 24 25 25 25 25 26 26 26 27 27 27 27 26 26 27 27 28 29 29 29 29 29 29 29 30 30 30 29 29 29 29
21 22 22 23 24 24 22 23 23 24 25 24 24 24 25 26 26 26 26 26 27 28 28 28 28 28 28 28 28 29 30 30 31 32 31 31 31 31 31 31 31 31 30 30
21 22 22 23 24 24 24 24 25 25 25 25 26 26 26 26 26 26 26 27 28 29 29 29 29 29 29 29 30 31 31 31 32 32 32 32 32 33 32 32 33 32 32 31
22 22 23 24 24 24 25 25 25 26 26 27 27 26 27 27 27 27 27 28 29 29 29 29 30 30 30 30 32 32 33 33 33 33 33 34 34 34 34 33 33 33 32 31
23 23 24 25 25 25 26 26 26 27 27 27 27 27 28 28 28 28 28 28 29 29 29 30 30 31 31 31 32 33 34 35 36 36 35 34 34 34 34 33 33 33 32 32
23 23 24 26 25 25 26 27 28 28 27 27 27 27 28 27 28 28 29 29 29 30 30 30 31 31 32 32 32 33 34 35 35 35 35 35 35 34 34 34 33 32 33 33
25 25 25 26 26 26 27 27 27 27 27 27 27 27 27 27 28 29 30 30 30 31 32 32 32 33 33 33 33 34 34 34 34 34 34 34 34 34 34 33 33 33 34 34
Wind_Direction
265 269 271 269 266 265 264 268 275 278 283 283 287 285 286 284 289 289 288 288 288 290 293 293 293 293 291 289 287 289 290 289 290 291 289 287 290 294 297 298 300 300 295 293
259 263 263 259 260 262 262 264 270 275 279 280 282 282 281 280 284 288 288 289 291 292 292 295 294 293 292 292 291 292 292 291 291 292 290 291 292 291 292 293 296 298 298 296
259 259 259 259 260 262 266 267 270 275 280 283 281 277 276 279 281 283 285 285 286 289 292 293 293 297 294 293 292 292 292 291 291 292 290 291 293 293 294 294 294 293 295 296
257 257 258 260 261 261 263 267 270 272 278 283 287 285 282 281 285 284 283 285 285 288 291 292 293 296 295 292 292 293 292 291 290 290 290 291 294 294 294 293 294 293 293 293
260 256 255 258 260 262 263 263 265 269 274 277 286 290 287 285 287 289 291 290 289 290 291 292 291 292 294 289 289 292 291 289 287 286 287 289 293 294 294 293 294 293 292 291
265 262 260 260 261 261 261 262 263 266 270 275 285 287 285 287 291 292 293 296 296 293 293 292 291 291 292 289 290 290 289 289 289 288 287 288 291 292 293 293 292 291 292 291
264 262 262 262 260 261 260 263 264 268 275 282 285 284 282 287 290 289 291 293 295 294 295 293 292 293 292 291 290 289 290 288 289 289 288 288 290 291 291 292 291 291 291 290
258 259 261 264 264 262 260 261 264 262 268 275 279 282 284 283 283 282 286 290 293 295 296 295 294 295 295 292 289 287 289 289 289 289 288 289 290 290 290 290 289 289 290 288
255 262 262 261 263 263 263 260 262 263 263 266 273 274 280 282 281 284 286 289 291 292 294 292 292 295 294 293 290 289 291 290 288 287 289 290 291 292 291 290 290 288 287 287
251 255 259 259 260 261 264 267 260 261 264 267 272 274 275 283 287 286 287 288 288 289 292 293 294 295 292 292 290 290 290 289 288 288 289 289 291 292 292 290 289 288 287 286
248 255 260 261 264 268 265 266 264 262 266 271 276 279 282 285 286 286 284 285 288 292 293 293 293 294 294 293 292 292 291 290 288 289 290 289 289 290 290 289 288 288 287 286
246 251 257 262 262 263 266 269 268 268 269 270 273 278 286 286 286 286 286 285 285 289 291 292 291 292 293 293 293 293 290 290 290 290 289 289 289 290 288 288 287 288 288 287
247 250 255 259 262 259 264 267 268 269 270 270 273 276 282 281 281 283 285 287 289 290 290 291 291 291 293 292 293 293 292 292 292 291 290 291 291 290 288 287 286 286 287 287
250 250 252 258 266 265 264 261 262 263 265 269 273 276 278 281 280 280 283 286 288 290 291 291 291 291 291 291 291 291 293 293 293 292 291 290 290 289 288 287 285 285 285 285
251 252 254 258 262 268 269 268 265 263 267 269 271 274 276 277 280 281 282 285 286 288 289 290 291 290 290 289 289 290 291 292 291 291 291 290 289 288 287 285 284 285 286 286
251 254 257 258 259 262 267 267 269 269 270 271 272 274 276 275 277 280 283 285 285 286 288 289 290 290 289 288 288 290 290 291 291 292 292 291 289 287 287 285 284 286 287 287
251 255 257 259 260 261 264 269 272 273 273 273 274 275 276 277 277 279 283 284 285 287 288 289 289 289 289 289 288 288 288 290 290 291 292 291 289 288 288 287 285 286 287 286
254 255 258 261 262 262 267 269 272 274 275 275 276 277 277 279 280 282 284 286 286 287 288 289 289 289 289 289 288 286 286 288 289 289 289 289 289 289 289 289 286 285 285 284
253 255 257 260 263 265 267 269 270 275 276 277 277 278 280 281 282 285 286 288 288 288 289 289 289 290 290 290 289 288 287 286 288 288 288 289 289 289 288 288 287 285 284 283
253 254 257 261 263 266 269 268 271 275 278 280 281 280 280 281 282 284 285 287 288 288 289 289 289 290 290 289 289 288 288 286 287 288 288 287 287 288 288 287 286 284 283 281
256 255 257 260 263 266 268 270 272 274 277 279 281 281 281 282 283 285 287 288 289 290 288 290 288 290 290 289 288 288 287 286 285 285 285 286 286 287 287 286 285 283 282 281
260 261 261 261 264 267 268 272 273 274 276 278 279 281 283 283 285 285 287 289 290 290 290 290 291 292 291 288 288 288 288 287 286 286 285 285 286 286 286 284 284 283 281 281
256 260 263 263 266 269 270 271 274 275 276 278 280 282 284 285 285 284 285 288 290 291 291 291 292 293 293 291 289 289 288 288 288 287 287 286 284 284 285 284 284 283 281 280
256 260 264 265 266 267 269 271 272 274 276 279 281 283 285 285 284 285 286 288 289 290 291 292 293 293 293 292 291 290 290 289 289 288 287 286 285 284 284 284 283 283 283 281
258 259 264 267 266 266 268 272 274 276 278 280 282 284 284 284 285 285 286 287 289 291 292 292 293 294 294 294 293 293 293 291 290 289 288 287 285 284 283 283 283 282 281 281
261 261 263 266 268 268 270 272 275 278 280 282 282 283 284 284 286 286 286 288 290 291 292 293 294 294 295 295 295 295 295 294 293 291 290 288 286 284 283 282 282 281 280 281
Height
5847 5848 5848 5848 5848 5848 5848 5848 5848 5848 5848 5848 5848 5848 5848 5848 5848 5848 5848 5848 5848 5848 5848 5847 5847 5846 5846 5846 5846 5846 5845 5845 5845 5845 5844 5844 5844 5843 5843 5842 5842 5841 5841 5840
5846 5846 5846 5846 5846 5846 5847 5847 5847 5847 5847 5847 5846 5846 5847 5846 5847 5846 5847 5846 5846 5846 5846 5846 5845 5844 5844 5843 5843 5843 5843 5842 5842 5842 5842 5841 5841 5841 5840 5840 5839 5838 5838 5837
5843 5845 5844 5844 5845 5845 5845 5845 5845 5845 5845 5845 5845 5844 5844 5844 5845 5845 5845 5844 5844 5844 5844 5844 5843 5842 5842 5841 5841 5840 5840 5840 5839 5839 5839 5838 5838 5837 5837 5836 5836 5835 5835 5834
5841 5842 5842 5842 5843 5843 5843 5843 5843 5843 5843 5843 5843 5842 5842 5842 5842 5842 5842 5842 5842 5842 5841 5841 5841 5840 5839 5839 5838 5838 5837 5837 5836 5836 5836 5835 5835 5834 5834 5833 5833 5832 5831 5830
5838 5839 5840 5840 5840 5840 5841 5841 5841 5841 5841 5841 5841 5840 5841 5840 5840 5840 5840 5840 5839 5839 5839 5838 5838 5838 5837 5836 5835 5835 5834 5834 5833 5833 5833 5832 5831 5831 5830 5830 5829 5828 5827 5826
5836 5836 5837 5837 5838 5838 5838 5839 5839 5838 5838 5839 5839 5838 5839 5838 5838 5838 5838 5837 5837 5836 5836 5836 5835 5834 5834 5833 5832 5832 5831 5830 5830 5830 5829 5829 5828 5827 5827 5826 5825 5824 5823 5822
5833 5834 5834 5835 5835 5836 5836 5836 5837 5836 5836 5836 5837 5836 5836 5836 5836 5836 5835 5835 5834 5834 5833 5833 5832 5831 5831 5830 5829 5828 5828 5827 5827 5826 5826 5825 5824 5823 5823 5822 5821 5820 5819 5818
5830 5831 5832 5832 5833 5833 5833 5834 5835 5834 5835 5835 5834 5833 5834 5834 5834 5833 5832 5832 5831 5830 5830 5829 5829 5828 5827 5827 5826 5825 5824 5823 5823 5822 5822 5821 5820 5819 5818 5817 5816 5815 5814 5814
5828 5829 5829 5830 5830 5830 5830 5831 5831 5831 5831 5831 5831 5831 5831 5831 5831 5830 5829 5829 5828 5827 5827 5826 5825 5824 5824 5823 5822 5821 5820 5820 5819 5818 5817 5816 5815 5814 5813 5812 5811 5810 5809 5809
5825 5826 5826 5827 5827 5828 5829 5829 5829 5829 5829 5829 5829 5828 5828 5827 5827 5827 5826 5826 5825 5824 5824 5822 5821 5821 5820 5819 5818 5817 5816 5815 5814 5814 5813 5812 5810 5809 5808 5807 5806 5805 5804 5803
5822 5823 5824 5824 5825 5825 5826 5826 5826 5826 5826 5826 5826 5827 5825 5824 5824 5823 5822 5821 5821 5820 5820 5819 5818 5817 5816 5814 5813 5812 5811 5810 5809 5808 5807 5806 5805 5804 5802 5801 5801 5800 5799 5798
5818 5819 5819 5821 5822 5822 5823 5823 5823 5824 5823 5823 5822 5825 5821 5821 5820 5819 5818 5817 5817 5816 5816 5815 5814 5813 5811 5810 5809 5808 5806 5805 5804 5803 5802 5800 5799 5798 5797 5796 5795 5794 5793 5792
5814 5815 5816 5817 5820 5820 5819 5819 5819 5819 5819 5819 5819 5821 5818 5816 5816 5815 5815 5814 5813 5812 5811 5810 5809 5808 5806 5805 5804 5803 5801 5800 5798 5797 5796 5794 5793 5792 5791 5790 5789 5788 5787 5786
5810 5811 5813 5814 5814 5814 5814 5815 5815 5815 5815 5815 5815 5815 5814 5812 5811 5811 5810 5810 5809 5808 5807 5805 5804 5803 5801 5800 5799 5797 5796 5794 5792 5791 5789 5788 5787 5785 5784 5783 5782 5781 5781 5780
5805 5806 5807 5808 5809 5809 5809 5810 5810 5810 5810 5811 5811 5809 5809 5808 5806 5806 5805 5804 5804 5802 5801 5800 5798 5797 5796 5794 5792 5791 5790 5788 5786 5784 5783 5781 5780 5779 5777 5776 5776 5775 5774 5773
5800 5802 5802 5803 5804 5804 5804 5805 5805 5805 5805 5805 5805 5805 5804 5803 5802 5800 5800 5799 5798 5797 5795 5794 5792 5791 5789 5788 5786 5785 5783 5781 5778 5777 5776 5774 5773 5772 5771 5769 5768 5767 5766 5765
5796 5797 5798 5798 5799 5799 5799 5801 5800 5800 5800 5800 5800 5800 5798 5797 5796 5795 5794 5793 5792 5791 5790 5788 5786 5785 5783 5781 5780 5778 5776 5774 5772 5771 5769 5768 5766 5765 5763 5762 5761 5760 5759 5758
5790 5791 5792 5793 5794 5794 5797 5796 5795 5795 5795 5794 5793 5793 5792 5791 5790 5789 5788 5787 5786 5785 5783 5781 5780 5778 5776 5774 5772 5771 5769 5767 5765 5764 5762 5761 5759 5758 5756 5755 5753 5752 5751 5750
5785 5786 5786 5787 5787 5788 5790 5790 5789 5789 5789 5788 5788 5787 5786 5785 5784 5783 5781 5780 5779 5778 5776 5774 5772 5770 5769 5767 5765 5763 5761 5760 5757 5756 5755 5753 5752 5750 5748 5747 5745 5744 5742 5741
5779 5780 5781 5782 5782 5782 5785 5784 5783 5784 5782 5782 5781 5780 5779 5779 5778 5777 5775 5774 5772 5771 5769 5767 5765 5763 5761 5759 5757 5756 5754 5752 5750 5748 5746 5745 5743 5742 5740 5739 5737 5735 5734 5733
5774 5775 5775 5776 5776 5776 5778 5777 5778 5778 5777 5776 5775 5774 5773 5772 5771 5770 5768 5767 5765 5763 5762 5759 5757 5755 5754 5751 5749 5747 5746 5743 5741 5739 5738 5736 5734 5733 5731 5730 5728 5727 5726 5724
5768 5769 5770 5770 5770 5773 5772 5771 5772 5771 5770 5769 5769 5768 5767 5766 5764 5763 5761 5760 5758 5756 5754 5752 5750 5748 5746 5743 5741 5739 5737 5735 5733 5731 5729 5727 5725 5723 5722 5720 5719 5717 5716 5715
5763 5764 5764 5764 5766 5766 5765 5765 5764 5763 5763 5763 5762 5761 5760 5759 5757 5756 5754 5753 5751 5749 5747 5745 5742 5740 5738 5735 5733 5730 5728 5726 5723 5721 5719 5717 5715 5714 5712 5710 5709 5707 5706 5705
5756 5757 5758 5758 5758 5758 5757 5757 5757 5756 5756 5756 5755 5754 5753 5751 5750 5749 5747 5745 5743 5741 5739 5737 5734 5732 5729 5726 5724 5721 5718 5715 5713 5711 5709 5707 5705 5703 5702 5700 5699 5698 5696 5695
5750 5751 5751 5751 5751 5751 5750 5750 5750 5750 5749 5749 5748 5747 5745 5744 5742 5741 5739 5737 5735 5733 5730 5728 5726 5723 5720 5717 5714 5711 5708 5705 5702 5700 5697 5695 5694 5692 5691 5690 5689 5688 5686 5685
5744 5744 5744 5744 5744 5744 5744 5743 5743 5742 5742 5741 5740 5739 5737 5736 5735 5733 5731 5729 5727 5724 5722 5719 5717 5714 5711 5708 5704 5701 5697 5694 5692 5689 5686 5684 5682 5681 5680 5679 5678 5677 5676 5675